Weather reports worldwide

Advertisment
Santon Downham, United Kingdom (99118): temperature & dewpoint: 15.02.2019 20:00:00 - 21.02.2019 20:00:00 (GMT)Santon Downham, United Kingdom (99118): temperature -20cm & temperature -100cm: 15.02.2019 20:00:00 - 21.02.2019 20:00:00 (GMT)Santon Downham, United Kingdom (99118): precipitation: 15.02.2019 20:00:00 - 21.02.2019 20:00:00 (GMT)
Date & Time tt [°C] td [°C] tt -20cm [°C] tt -100cm [°C] rr [mm]
21.02.2019 20:00:00 5,2 4,3 - - 0,0
21.02.2019 19:00:00 6,7 5,1 - - 0,0
21.02.2019 18:00:00 9,4 6,0 - - 0,0
21.02.2019 17:00:00 13,7 8,3 - - 0,0
21.02.2019 16:00:00 14,8 8,4 - - 0,0
21.02.2019 15:00:00 15,0 8,5 - - 0,0
21.02.2019 14:00:00 15,5 9,3 - - 0,0
21.02.2019 13:00:00 13,8 8,7 - - 0,0
21.02.2019 12:00:00 13,7 8,9 - - 0,0
21.02.2019 11:00:00 13,6 8,9 - - 0,0
21.02.2019 10:00:00 12,3 8,4 - - 0,0
21.02.2019 09:00:00 10,4 7,4 6,5 6,9 0,0
21.02.2019 08:00:00 8,8 6,5 - - 0,0
21.02.2019 07:00:00 8,9 6,1 - - 0,0
21.02.2019 06:00:00 9,2 6,0 - - 0,0
21.02.2019 05:00:00 9,2 6,0 - - 0,0
21.02.2019 04:00:00 8,9 5,9 - - 0,0
21.02.2019 03:00:00 8,7 5,9 - - 0,0
21.02.2019 02:00:00 8,5 5,9 - - 0,0
21.02.2019 01:00:00 8,5 5,9 - - 0,0
21.02.2019 00:00:00 8,9 5,7 - - 0,0
20.02.2019 23:00:00 9,2 5,5 - - 0,0
20.02.2019 22:00:00 9,5 5,5 - - 0,0
20.02.2019 21:00:00 8,9 4,6 - - 0,0
20.02.2019 20:00:00 9,2 4,3 - - 0,0
20.02.2019 19:00:00 9,4 4,1 - - 0,0
20.02.2019 18:00:00 9,8 4,4 - - 0,0
20.02.2019 17:00:00 11,1 4,7 - - 0,0
20.02.2019 16:00:00 11,9 4,7 - - 0,0
20.02.2019 15:00:00 - - - - -
20.02.2019 14:00:00 - - - - -
20.02.2019 13:00:00 - - - - 0,0
20.02.2019 12:00:00 11,7 6,2 - - 0,0
20.02.2019 11:00:00 10,5 5,9 - - 0,0
20.02.2019 10:00:00 9,7 6,1 - - 0,0
20.02.2019 09:00:00 9,1 5,8 6,0 6,7 0,0
20.02.2019 08:00:00 8,0 5,3 - - 0,0
20.02.2019 07:00:00 7,5 4,7 - - 0,0
20.02.2019 06:00:00 7,3 4,4 - - 0,0
20.02.2019 05:00:00 7,1 4,2 - - 0,0
20.02.2019 04:00:00 7,1 4,4 - - 0,0
20.02.2019 03:00:00 6,9 4,4 - - 0,0
20.02.2019 02:00:00 6,9 4,4 - - 0,0
20.02.2019 01:00:00 7,1 4,5 - - 0,0
20.02.2019 00:00:00 7,3 4,4 - - 0,0
19.02.2019 23:00:00 7,7 4,2 - - 0,0
19.02.2019 22:00:00 7,7 3,5 - - 0,0
19.02.2019 21:00:00 8,2 3,3 - - 0,0
19.02.2019 20:00:00 8,2 2,8 - - 0,0
19.02.2019 19:00:00 7,7 2,5 - - 0,0
19.02.2019 18:00:00 8,5 1,9 - - 0,0
19.02.2019 17:00:00 9,5 1,6 - - 0,0
19.02.2019 16:00:00 10,7 2,0 - - 0,0
19.02.2019 15:00:00 11,6 1,8 - - 0,0
19.02.2019 14:00:00 11,3 2,8 - - 0,0
19.02.2019 13:00:00 10,6 3,0 - - 0,0
19.02.2019 12:00:00 10,7 3,3 - - 0,0
19.02.2019 11:00:00 9,6 4,7 - - 0,0
19.02.2019 10:00:00 8,0 4,9 - - 0,0
19.02.2019 09:00:00 6,5 3,9 5,7 6,7 0,0
19.02.2019 08:00:00 5,4 3,6 - - 0,0
19.02.2019 07:00:00 4,8 3,5 - - 0,0
19.02.2019 06:00:00 4,5 3,2 - - 0,0
19.02.2019 05:00:00 4,2 2,9 - - 0,0
19.02.2019 04:00:00 4,5 2,8 - - 0,0
19.02.2019 03:00:00 4,7 2,8 - - 0,0
19.02.2019 02:00:00 5,1 2,9 - - 0,0
19.02.2019 01:00:00 5,4 3,0 - - 0,0
19.02.2019 00:00:00 5,4 3,0 - - 0,0
18.02.2019 23:00:00 5,4 3,2 - - 0,0
18.02.2019 22:00:00 6,1 3,5 - - 0,0
18.02.2019 21:00:00 6,7 4,1 - - 0,0
18.02.2019 20:00:00 7,5 4,4 - - 0,0
18.02.2019 19:00:00 8,6 4,9 - - 0,0
18.02.2019 18:00:00 9,0 5,4 - - 0,0
18.02.2019 17:00:00 9,1 5,4 - - 0,0
18.02.2019 16:00:00 9,7 4,9 - - 0,0
18.02.2019 15:00:00 9,9 5,4 - - 0,0
18.02.2019 14:00:00 10,2 5,5 - - 0,0
18.02.2019 13:00:00 9,8 6,8 - - 0,2
18.02.2019 12:00:00 10,5 7,0 - - 0,0
18.02.2019 11:00:00 10,2 7,0 - - 0,0
18.02.2019 10:00:00 9,1 6,8 - - 0,0
18.02.2019 09:00:00 8,7 6,5 5,7 6,5 0,0
18.02.2019 08:00:00 7,6 6,2 - - 0,0
18.02.2019 07:00:00 7,0 5,8 - - 0,0
18.02.2019 06:00:00 7,4 6,0 - - 0,0
18.02.2019 05:00:00 6,8 6,0 - - 0,0
18.02.2019 04:00:00 6,6 5,3 - - 0,0
18.02.2019 03:00:00 8,5 6,8 - - 0,0
18.02.2019 02:00:00 9,6 7,3 - - 0,0
18.02.2019 01:00:00 9,9 7,5 - - 0,0
18.02.2019 00:00:00 9,8 7,4 - - 0,0
17.02.2019 23:00:00 9,1 6,8 - - 0,0
17.02.2019 22:00:00 8,9 6,5 - - 0,0
17.02.2019 21:00:00 9,2 6,5 - - 0,0
17.02.2019 20:00:00 10,4 7,2 - - 0,0
17.02.2019 19:00:00 11,3 7,0 - - 0,0
17.02.2019 18:00:00 12,1 6,7 - - 0,0
17.02.2019 17:00:00 13,1 6,6 - - 0,0
17.02.2019 16:00:00 14,2 6,1 - - 0,0
17.02.2019 15:00:00 14,5 5,8 - - 0,0
17.02.2019 14:00:00 14,5 5,6 - - 0,0
17.02.2019 13:00:00 14,2 5,2 - - 0,0
17.02.2019 12:00:00 12,7 5,0 - - 0,0
17.02.2019 11:00:00 - - - - 0,0
17.02.2019 10:00:00 9,3 5,9 - - 0,0
17.02.2019 09:00:00 6,3 6,1 5,4 6,4 0,0
17.02.2019 08:00:00 2,1 1,6 - - 0,0
17.02.2019 07:00:00 3,5 3,2 - - 0,0
17.02.2019 06:00:00 3,7 3,2 - - 0,0
17.02.2019 05:00:00 5,0 4,4 - - 0,0
17.02.2019 04:00:00 5,8 5,1 - - 0,0
17.02.2019 03:00:00 7,1 6,2 - - 0,0
17.02.2019 02:00:00 8,7 7,4 - - 0,0
17.02.2019 01:00:00 9,2 8,1 - - 0,0
17.02.2019 00:00:00 9,6 7,9 - - 0,0
16.02.2019 23:00:00 10,8 8,6 - - 0,0
16.02.2019 22:00:00 11,1 8,7 - - 0,0
16.02.2019 21:00:00 11,5 8,7 - - 0,0
16.02.2019 20:00:00 10,9 8,6 - - 0,0
16.02.2019 19:00:00 12,0 8,6 - - 0,0
16.02.2019 18:00:00 12,3 8,7 - - 0,0
16.02.2019 17:00:00 12,5 8,8 - - 0,0
16.02.2019 16:00:00 12,6 8,7 - - 0,0
16.02.2019 15:00:00 12,7 8,7 - - 0,0
16.02.2019 14:00:00 12,7 8,8 - - 0,0
16.02.2019 13:00:00 12,7 8,9 - - 0,0
16.02.2019 12:00:00 12,4 8,7 - - 0,0
16.02.2019 11:00:00 11,3 8,3 - - 0,0
16.02.2019 10:00:00 9,0 8,6 - - 0,0
16.02.2019 09:00:00 4,8 4,7 4,7 6,4 0,0
16.02.2019 08:00:00 2,6 2,5 - - 0,0
16.02.2019 07:00:00 0,8 0,6 - - 0,0
16.02.2019 06:00:00 -0,7 -1,0 - - 0,0
16.02.2019 05:00:00 -0,9 -1,3 - - 0,0
16.02.2019 04:00:00 -0,6 -1,1 - - 0,0
16.02.2019 03:00:00 -0,2 -1,0 - - 0,0
16.02.2019 02:00:00 1,0 0,1 - - 0,0
16.02.2019 01:00:00 2,3 0,8 - - 0,0
16.02.2019 00:00:00 2,6 1,8 - - 0,0
15.02.2019 23:00:00 0,5 0,0 - - 0,0
15.02.2019 22:00:00 1,5 1,1 - - 0,0
15.02.2019 21:00:00 1,6 1,0 - - 0,0
15.02.2019 20:00:00 2,1 1,5 - - 0,0

tt = temperature
td = dewpoint
tt -20cm = temperature -20cm
tt -100cm = temperature -100cm
rr = precipitation

Next stations